Location: Amity Harbor
(40.6634°N, 73.3982°W)
Time: 23:20:09
(UTC+00:00)

Daily predictions for brighter satellites

Satellite Brightness Start Highest point End
(mag) Time Altitude Azimuth Time Altitude Azimuth Time Altitude Azimuth
Cosmos 1626 4.2 22:26:19 10° SW 22:29:36 30° WNW 22:32:54 10° NNW
USA 267 3.8 22:25:16 10° NE 22:31:37 56° NW 22:37:58 10° WSW
Cosmos 2227 Rocket 2.4 22:26:20 10° SSW 22:31:59 80° WNW 22:37:40 10° NNE
Okean O Rocket 4.2 22:33:46 10° SSW 22:37:28 26° W 22:41:12 10° NW
Cosmos 2221 4.1 22:40:44 10° NE 22:42:58 14° ENE 22:45:12 10° ESE
NOAA 12 4.1 22:37:51 10° SSE 22:43:05 86° ENE 22:48:21 10° NNW
Meteor 1-21 Rocket 4.4 22:38:40 10° S 22:44:17 82° W 22:50:02 10° N
Okean-O 2.6 22:41:53 10° SSE 22:46:16 71° ENE 22:50:41 10° N
Cosmos 1356 Rocket 4.3 22:45:28 10° NNE 22:48:57 27° ENE 22:52:29 10° SE
FengYun 1-2 T 4.3 22:43:50 10° SSE 22:49:22 62° ENE 22:54:58 10° N
Cosmos 1703 3.4 22:45:32 10° S 22:49:23 53° E 22:53:16 10° NNE
Cosmos-2242 2.9 22:45:32 10° N 22:49:50 80° E 22:54:06 10° S
Cosmos 44 3.8 22:47:18 10° SW 22:51:48 53° NW 22:56:08 10° NNE
Cosmos 2366 rocket 4.0 22:47:33 10° S 22:53:40 64° E 22:59:52 10° NNE
SKYMED 2 3.5 22:51:31 10° NNE 22:55:52 68° ESE 23:00:10 10° S
CZ-4 R/B 4.5 22:54:39 10° SSE 22:58:41 55° ENE 23:02:43 10° N
CSL-04 Debris 4.5 22:56:14 10° SE 23:01:17 44° ENE 23:06:24 10° N
USA 234 3.2 22:58:02 10° SE 23:04:34 80° NE 23:11:07 10° NW
Cosmos 1455 2.2 23:01:50 10° N 23:05:38 84° W 23:09:22 10° S
YAOGAN 1 2.7 23:03:55 10° SSE 23:08:04 49° ENE 23:12:14 10° N
Cosmos 1939 Rocket 3.2 23:10:18 10° SE 23:13:58 40° ENE 23:17:43 10° N
CZ-2D R/B 3.6 23:12:53 10° SE 23:16:30 42° ENE 23:20:10 10° N
CSL-04 Rocket 3.7 23:15:59 10° SSE 23:21:25 65° ENE 23:26:56 10° N
ADEOS Rocket 3.7 23:16:04 10° NNE 23:22:39 44° E 23:29:44 10° S
USA 238 DEB 4.3 23:17:12 10° S 23:23:04 34° ESE 23:26:29 22° ENE
USA 238 4.3 23:17:21 10° S 23:23:11 34° ESE 23:26:32 22° ENE
Cosmos 1727 Rocket 3.9 23:19:57 10° N 23:26:09 75° E 23:32:18 10° SSE
H-2A R/B 3.8 23:29:00 15° NNE 23:29:00 15° NNE 23:30:18 10° NNE
Cosmos 2251 Rocket 3.6 23:21:50 10° NNW 23:27:10 84° WSW 23:32:30 10° SSE
Cosmos 44 Rocket 3.1 23:30:04 10° SSW 23:34:52 73° ESE 23:37:32 26° NE
Shenzhou-11 Module 2.4 23:39:05 10° WNW 23:41:17 46° NW 23:41:17 46° NW
ISS -1.4 23:41:13 10° NW 23:43:16 15° NNW 23:43:48 15° N
COSMO-SKYMED 1 4.2 23:39:53 10° N 23:43:50 35° WNW 23:47:46 10° SW
Cosmos 1842 Rocket 3.5 23:41:46 10° N 23:46:16 90° E 23:50:44 10° S
OAO 2 Rocket 4.4 23:47:03 10° SW 23:51:14 28° SSE 23:52:10 26° SE
SL-16 R/B 3.4 23:46:27 10° NW 23:51:48 44° WSW 23:57:07 10° S
Cosmos 2227 4.1 23:47:47 10° SSW 23:53:30 77° ESE 23:56:55 26° NNE
CZ-4 R/B 3.0 23:50:27 10° SSW 23:54:12 36° W 23:58:03 10° NNW
